Погода в Красном Октябре

Россия / Владимирская область     56°06′21″N   41°23′00″E
темп.,
°C
ветер,
м/с
пор.,
м/с
влажн.,
%
обл.,
%
осадки,
мм/ч
давл.,
гПа
погр.,
м
27 января, чт
чт2700:00−18з1110092 0.0 10179
03:00−20з1110091 0.1 101712
06:00−22з11100100 0.0 10179
09:00−23зюз11100100 0.1 101816
12:00−12ююз2395100 0.1 1017181
15:00−11ююз2495100 0.1 1017291
18:00−16ю25100100 0.0 101771
21:00−16ю3998100 0.0 1016153
28 января, пт
пт2800:00−15ю31097100 0.0 1015215
03:00−16ю3109682 0.0 1014215
06:00−17ююв3119899 0.0 1013221
09:00−15ююв4139685 0.0 1012310
12:00−11ююв5149390 0.0 1011420
15:00−10ююв51491100 0.0 1010515
18:00−10ююв51490100 0.0 1009483
21:00−9ююв51492100 0.1 1008488
29 января, сб
сб2900:00−9ююв51394100 0.3 1007467
03:00−9ююв41095100 0.7 1006423
06:00−8юв3995100 0.6 1005360
09:00−8юв3795100 1.3 1005322
12:00−6ююв3594100 0.5 1004298
15:00−4ююв249498 0.9 1004325
18:00−5юв2697100 0.6 1003213
21:00−5ююв2598100 0.9 1002131
30 января, вс
вс3000:00−7ююз129894 0.1 100031
03:00−9юз129977 0.3 99931
06:00−7ююз279772 0.1 997136
09:00−9ююз389667 0.2 996238
12:00−7ю51392100 0.0 994523
15:00−6ююв51393100 0.1 992575
18:00−6ююв61493100 0.6 991875
21:00−5ююв61392100 0.8 990744
31 января, пн
пн3100:00−5ююв51394100 0.2 989600
03:00−5ююв51395100 0.7 988583
06:00−3ююв5139599 0.5 988759
09:00−2ююв51296100 0.8 988864
12:00−1ююв51197100 0.6 989830
15:00−1ююз4993100 1.8 990941
18:00−3ю3987100 0.3 991484
21:00−4ю2596100 0.4 992217